Voltar ao catálogo

STARLINK-32694

AtivoComunicaçõesVLEO
NORAD 62494·PAYLOAD·🇺🇸 United States

Lançado Jan 6, 2025 de Cape Canaveral Space Force Station

Loading…

Próximas Passagens (próximas 24 horas)

TLE

AtualizadoSource: CelesTrak SupGP

Época: Sep 14, 2026, 20:47 UTC

1 62494C 25003H   26257.86645833 -.00019813  00000+0 -71784-3 0  2570
2 62494  43.0034 300.3283 0001495 271.8747 203.5908 15.27578576    16

Acompanhe STARLINK-32694 em tempo real com AllMySat

Download on the App Store